• In Italy
  • List of Countries
  • For 7 days
  • Water Temperature
  • Satellite Maps
  • Weather Map
  • Weather Widgets
  • user-avatar
    Login

    Hourly Weather Manama

    Today, 18 December, Monday

    Time Temperature Precipitation Wind Pressure Humidity
    00:00 +21°C° 0.1 mm 6 mps 765 mmHg 64%
    01:00 +21°C° 0.1 mm 6 mps 765 mmHg 64%
    02:00 +21°C° 0.1 mm 7 mps 765 mmHg 63%
    03:00 +21°C° 0 mm 7 mps 765 mmHg 62%
    04:00 +21°C° 0.2 mm 7 mps 766 mmHg 62%
    05:00 +21°C° 0.2 mm 7 mps 766 mmHg 62%
    06:00 +21°C° 0.2 mm 7 mps 766 mmHg 62%
    07:00 +22°C° 0.1 mm 7 mps 766 mmHg 59%
    08:00 +22°C° 0.1 mm 8 mps 767 mmHg 56%
    09:00 +23°C° 0 mm 8 mps 767 mmHg 52%
    10:00 +24°C° 0 mm 8 mps 767 mmHg 50%
    11:00 +24°C° 0 mm 8 mps 767 mmHg 48%
    12:00 +24°C° 0 mm 8 mps 767 mmHg 46%
    13:00 +24°C° 0 mm 8 mps 766 mmHg 46%
    14:00 +24°C° 0 mm 8 mps 766 mmHg 46%
    15:00 +24°C° 0 mm 8 mps 766 mmHg 47%
    16:00 +23°C° 0 mm 7 mps 766 mmHg 49%
    17:00 +23°C° 0 mm 7 mps 766 mmHg 52%
    18:00 +22°C° 0 mm 7 mps 766 mmHg 55%
    19:00 +22°C° 0 mm 6 mps 767 mmHg 56%
    20:00 +21°C° 0 mm 6 mps 767 mmHg 57%
    21:00 +21°C° 0 mm 6 mps 767 mmHg 58%
    22:00 +21°C° 0 mm 6 mps 767 mmHg 58%
    23:00 +21°C° 0 mm 7 mps 767 mmHg 57%

    Tomorrow, 19 December, Tuesday

    Time Temperature Precipitation Wind Pressure Humidity
    00:00 +21°C° 0 mm 7 mps 767 mmHg 57%
    01:00 +20°C° 0 mm 7 mps 767 mmHg 55%
    02:00 +20°C° 0 mm 6 mps 767 mmHg 54%
    03:00 +20°C° 0 mm 6 mps 767 mmHg 52%
    04:00 +20°C° 0 mm 6 mps 767 mmHg 51%
    05:00 +20°C° 0 mm 6 mps 767 mmHg 49%
    06:00 +19°C° 0 mm 6 mps 767 mmHg 48%
    07:00 +20°C° 0 mm 6 mps 768 mmHg 46%
    08:00 +21°C° 0 mm 6 mps 768 mmHg 43%
    09:00 +21°C° 0 mm 6 mps 768 mmHg 41%
    10:00 +22°C° 0 mm 6 mps 768 mmHg 39%
    11:00 +23°C° 0 mm 6 mps 768 mmHg 37%
    12:00 +24°C° 0 mm 6 mps 767 mmHg 35%
    13:00 +24°C° 0 mm 6 mps 767 mmHg 35%
    14:00 +24°C° 0 mm 6 mps 767 mmHg 35%
    15:00 +24°C° 0 mm 6 mps 767 mmHg 35%
    16:00 +23°C° 0 mm 6 mps 767 mmHg 38%
    17:00 +23°C° 0 mm 6 mps 767 mmHg 41%
    18:00 +22°C° 0 mm 6 mps 767 mmHg 44%
    19:00 +22°C° 0 mm 5 mps 767 mmHg 45%
    20:00 +22°C° 0 mm 5 mps 768 mmHg 47%
    21:00 +21°C° 0 mm 5 mps 768 mmHg 48%
    22:00 +21°C° 0 mm 5 mps 768 mmHg 48%
    23:00 +21°C° 0 mm 5 mps 768 mmHg 49%

    Day after tomorrow, 20 December, Wednesday

    Time Temperature Precipitation Wind Pressure Humidity
    00:00 +21°C° 0 mm 5 mps 768 mmHg 50%
    01:00 +21°C° 0 mm 5 mps 768 mmHg 50%
    02:00 +20°C° 0 mm 4 mps 768 mmHg 50%
    03:00 +20°C° 0 mm 4 mps 767 mmHg 50%
    04:00 +20°C° 0 mm 4 mps 768 mmHg 50%
    05:00 +20°C° 0 mm 4 mps 768 mmHg 50%
    06:00 +20°C° 0 mm 4 mps 768 mmHg 51%
    07:00 +21°C° 0 mm 3 mps 768 mmHg 48%
    08:00 +21°C° 0 mm 3 mps 769 mmHg 45%
    09:00 +22°C° 0 mm 3 mps 769 mmHg 43%
    10:00 +24°C° 0 mm 3 mps 769 mmHg 41%
    11:00 +24°C° 0 mm 3 mps 768 mmHg 40%
    12:00 +25°C° 0 mm 3 mps 768 mmHg 39%
    13:00 +25°C° 0 mm 3 mps 768 mmHg 39%
    14:00 +25°C° 0 mm 3 mps 767 mmHg 39%
    15:00 +25°C° 0 mm 3 mps 767 mmHg 38%
    16:00 +25°C° 0 mm 3 mps 767 mmHg 41%
    17:00 +24°C° 0 mm 3 mps 768 mmHg 44%
    18:00 +24°C° 0 mm 3 mps 768 mmHg 47%
    19:00 +22°C° 0 mm 3 mps 768 mmHg 48%
    20:00 +23°C° 0 mm 2 mps 769 mmHg 50%
    21:00 +23°C° 0 mm 2 mps 769 mmHg 51%
    22:00 +22°C° 0 mm 1 mps 769 mmHg 53%
    23:00 +22°C° 0 mm 1 mps 769 mmHg 54%

    21 December, Thursday

    Time Temperature Precipitation Wind Pressure Humidity
    00:00 +21°C° 0 mm 1 mps 769 mmHg 56%
    01:00 +21°C° 0 mm 1 mps 769 mmHg 57%
    02:00 +19°C° 0 mm 0 mps 768 mmHg 59%
    03:00 +18°C° 0 mm 0 mps 768 mmHg 60%
    04:00 +18°C° 0 mm 0 mps 768 mmHg 61%
    05:00 +18°C° 0 mm 0 mps 769 mmHg 62%
    06:00 +18°C° 0 mm 0 mps 769 mmHg 63%
    07:00 +21°C° 0 mm 1 mps 769 mmHg 59%
    08:00 +22°C° 0 mm 1 mps 770 mmHg 55%
    09:00 +23°C° 0 mm 1 mps 770 mmHg 50%
    10:00 +24°C° 0 mm 1 mps 769 mmHg 48%
    11:00 +24°C° 0 mm 1 mps 769 mmHg 46%
    12:00 +25°C° 0 mm 1 mps 768 mmHg 45%
    13:00 +25°C° 0 mm 1 mps 768 mmHg 44%
    14:00 +25°C° 0 mm 1 mps 767 mmHg 43%
    15:00 +25°C° 0 mm 2 mps 767 mmHg 43%
    16:00 +25°C° 0 mm 2 mps 767 mmHg 45%
    17:00 +24°C° 0 mm 2 mps 767 mmHg 48%
    18:00 +24°C° 0 mm 2 mps 768 mmHg 51%
    19:00 +23°C° 0 mm 2 mps 768 mmHg 53%
    20:00 +23°C° 0 mm 2 mps 768 mmHg 56%
    21:00 +22°C° 0 mm 1 mps 768 mmHg 58%
    22:00 +22°C° 0 mm 1 mps 768 mmHg 60%
    23:00 +21°C° 0 mm 1 mps 767 mmHg 61%

    22 December, Friday

    Time Temperature Precipitation Wind Pressure Humidity
    00:00 +21°C° 0 mm 1 mps 767 mmHg 63%
    01:00 +21°C° 0 mm 1 mps 767 mmHg 64%
    02:00 +21°C° 0 mm 1 mps 767 mmHg 65%
    03:00 +20°C° 0 mm 1 mps 766 mmHg 66%
    04:00 +20°C° 0 mm 1 mps 767 mmHg 66%
    05:00 +19°C° 0 mm 2 mps 767 mmHg 66%
    06:00 +19°C° 0 mm 2 mps 767 mmHg 66%
    07:00 +20°C° 0 mm 2 mps 767 mmHg 61%
    08:00 +21°C° 0 mm 2 mps 768 mmHg 56%
    09:00 +23°C° 0 mm 2 mps 768 mmHg 51%
    10:00 +24°C° 0 mm 2 mps 767 mmHg 47%
    11:00 +25°C° 0 mm 2 mps 767 mmHg 44%
    12:00 +25°C° 0 mm 2 mps 766 mmHg 40%
    13:00 +25°C° 0 mm 2 mps 766 mmHg 39%
    14:00 +26°C° 0 mm 2 mps 765 mmHg 38%
    15:00 +26°C° 0 mm 1 mps 765 mmHg 37%
    16:00 +25°C° 0 mm 1 mps 765 mmHg 40%
    17:00 +24°C° 0 mm 2 mps 765 mmHg 44%
    18:00 +24°C° 0 mm 2 mps 765 mmHg 47%
    19:00 +23°C° 0 mm 1 mps 765 mmHg 49%
    20:00 +23°C° 0 mm 1 mps 765 mmHg 52%
    21:00 +22°C° 0 mm 1 mps 765 mmHg 55%
    22:00 +22°C° 0 mm 1 mps 765 mmHg 56%
    23:00 +22°C° 0 mm 1 mps 765 mmHg 57%

    23 December, Saturday

    Time Temperature Precipitation Wind Pressure Humidity
    00:00 +19°C° 0 mm 0 mps 764 mmHg 59%
    01:00 +21°C° 0 mm 1 mps 764 mmHg 59%
    02:00 +21°C° 0 mm 1 mps 764 mmHg 59%
    03:00 +21°C° 0 mm 1 mps 764 mmHg 59%
    04:00 +21°C° 0 mm 1 mps 764 mmHg 58%
    05:00 +20°C° 0 mm 2 mps 764 mmHg 58%
    06:00 +20°C° 0 mm 2 mps 764 mmHg 57%
    07:00 +21°C° 0 mm 2 mps 764 mmHg 52%
    08:00 +23°C° 0 mm 2 mps 765 mmHg 46%
    09:00 +24°C° 0 mm 3 mps 765 mmHg 41%
    10:00 +25°C° 0 mm 3 mps 764 mmHg 38%
    11:00 +25°C° 0 mm 3 mps 764 mmHg 35%
    12:00 +26°C° 0 mm 2 mps 764 mmHg 32%
    13:00 +27°C° 0 mm 2 mps 763 mmHg 32%
    14:00 +27°C° 0 mm 1 mps 763 mmHg 31%
    15:00 +27°C° 0 mm 1 mps 762 mmHg 31%
    16:00 +26°C° 0 mm 1 mps 763 mmHg 34%
    17:00 +25°C° 0 mm 1 mps 763 mmHg 36%
    18:00 +25°C° 0 mm 2 mps 763 mmHg 39%
    19:00 +24°C° 0 mm 2 mps 763 mmHg 41%
    20:00 +24°C° 0 mm 2 mps 763 mmHg 43%
    21:00 +24°C° 0 mm 2 mps 763 mmHg 45%
    22:00 +24°C° 0 mm 2 mps 763 mmHg 46%
    23:00 +23°C° 0 mm 2 mps 763 mmHg 47%
    Show more